TimeCST,TemperatureF,Dew PointF,Humidity,Sea Level PressureIn,VisibilityMPH,Wind Direction,Wind SpeedMPH,Gust SpeedMPH,PrecipitationIn,Events,Conditions,WindDirDegrees,DateUTC
12:53 AM,33.1,28.9,85,30.36,10.0,Calm,Calm,-,N/A,,Clear,0,2013-12-26 06:53:00
1:53 AM,30.9,28.9,92,30.35,9.0,Calm,Calm,-,N/A,,Clear,0,2013-12-26 07:53:00
2:53 AM,30.9,28.0,89,30.35,9.0,Calm,Calm,-,N/A,,Clear,0,2013-12-26 08:53:00
3:53 AM,30.9,28.9,92,30.34,8.0,Calm,Calm,-,N/A,,Clear,0,2013-12-26 09:53:00
4:53 AM,30.9,28.9,92,30.35,9.0,Calm,Calm,-,N/A,,Clear,0,2013-12-26 10:53:00
5:53 AM,30.9,28.9,92,30.36,9.0,Calm,Calm,-,N/A,,Clear,0,2013-12-26 11:53:00
6:53 AM,32.0,28.9,88,30.38,10.0,NW,3.5,-,N/A,,Clear,310,2013-12-26 12:53:00
7:53 AM,32.0,28.9,88,30.40,10.0,NW,3.5,-,N/A,,Clear,310,2013-12-26 13:53:00
8:53 AM,39.0,32.0,76,30.40,10.0,North,3.5,-,N/A,,Clear,360,2013-12-26 14:53:00
9:53 AM,44.1,30.9,60,30.42,10.0,Calm,Calm,-,N/A,,Clear,0,2013-12-26 15:53:00
10:53 AM,52.0,27.0,38,30.40,10.0,Variable,5.8,-,N/A,,Clear,0,2013-12-26 16:53:00
11:53 AM,55.0,28.0,35,30.37,10.0,NNE,11.5,-,N/A,,Clear,30,2013-12-26 17:53:00
12:53 PM,57.0,28.9,34,30.33,10.0,NW,5.8,-,N/A,,Clear,320,2013-12-26 18:53:00
1:53 PM,57.9,28.9,33,30.31,10.0,Variable,6.9,-,N/A,,Clear,0,2013-12-26 19:53:00
2:53 PM,57.0,30.0,36,30.31,10.0,NNE,5.8,-,N/A,,Clear,20,2013-12-26 20:53:00
3:53 PM,55.9,30.9,39,30.31,10.0,North,5.8,-,N/A,,Clear,10,2013-12-26 21:53:00
4:53 PM,53.1,33.1,47,30.32,10.0,NNE,3.5,-,N/A,,Clear,30,2013-12-26 22:53:00
5:53 PM,46.0,36.0,68,30.33,10.0,Calm,Calm,-,N/A,,Clear,0,2013-12-26 23:53:00
6:53 PM,43.0,37.0,80,30.34,10.0,Calm,Calm,-,N/A,,Clear,0,2013-12-27 00:53:00
7:53 PM,42.1,36.0,79,30.34,10.0,Calm,Calm,-,N/A,,Clear,0,2013-12-27 01:53:00
8:53 PM,39.9,36.0,86,30.35,10.0,Calm,Calm,-,N/A,,Clear,0,2013-12-27 02:53:00
9:53 PM,37.9,35.1,89,30.37,10.0,Calm,Calm,-,N/A,,Clear,0,2013-12-27 03:53:00
10:53 PM,37.9,35.1,89,30.35,10.0,Calm,Calm,-,N/A,,Clear,0,2013-12-27 04:53:00
11:53 PM,36.0,34.0,93,30.37,10.0,Calm,Calm,-,N/A,,Clear,0,2013-12-27 05:53:00